Private Wetterstation Wechselburg
Wetterdaten: Sonntag, 01.08.2021
Datum Zeit Temp. +2m Bodentemp. Temp.+5cm Temp. Wind Windchill X Diff Temp. Feuchte +2m Feuchte +5cm Luftdruck Regen Wind Richtung Richtung Sonnenschein Taupunkt Windchill Windben
01.08.2021 00:00 14,9 C 20,4 C 14,7 C 14,5 C 13,8 C 0,0 C 75 % 77 % 1011,4 hPa 0,0 l/m 0,0 km/h (0 Bft) O-NO 67 0 min 10,5 C 13,8 C 0,0 km/h (0 Bft)
01.08.2021 00:05 14,8 C 20,4 C 14,6 C 14,4 C 13,7 C 0,0 C 76 % 77 % 1011,4 hPa 0,0 l/m 0,0 km/h (0 Bft) O-NO 67 0 min 10,6 C 13,7 C 0,0 km/h (0 Bft)
01.08.2021 00:11 14,7 C 20,4 C 14,5 C 14,3 C 13,5 C 0,0 C 76 % 78 % 1011,4 hPa 0,0 l/m 0,0 km/h (0 Bft) N 0 0 min 10,5 C 13,5 C 0,0 km/h (0 Bft)
01.08.2021 00:29 14,4 C 20,4 C 14,2 C 13,9 C 12,9 C 0,0 C 76 % 78 % 1011,4 hPa 0,0 l/m 0,0 km/h (0 Bft) O-NO 67 0 min 10,2 C 12,9 C 0,0 km/h (0 Bft)
01.08.2021 00:31 14,3 C 20,4 C 14,1 C 13,8 C 12,7 C 0,0 C 77 % 79 % 1011,4 hPa 0,0 l/m 0,0 km/h (0 Bft) O-NO 67 0 min 10,3 C 12,7 C 0,0 km/h (0 Bft)
01.08.2021 00:35 14,3 C 20,4 C 14,1 C 13,8 C 12,7 C 0,0 C 77 % 79 % 1011,4 hPa 0,0 l/m 0,0 km/h (0 Bft) O-NO 67 0 min 10,3 C 12,7 C 0,0 km/h (0 Bft)
01.08.2021 00:40 14,1 C 20,4 C 13,9 C 13,6 C 12,7 C 0,0 C 78 % 79 % 1011,3 hPa 0,0 l/m 0,0 km/h (0 Bft) O-NO 67 0 min 10,3 C 12,7 C 0,0 km/h (0 Bft)
01.08.2021 00:45 14,1 C 20,4 C 13,9 C 13,6 C 12,6 C 0,0 C 78 % 79 % 1011,3 hPa 0,0 l/m 0,0 km/h (0 Bft) O-NO 67 0 min 10,3 C 12,6 C 0,0 km/h (0 Bft)
01.08.2021 00:50 14,0 C 20,4 C 13,9 C 13,5 C 12,5 C 0,0 C 78 % 80 % 1011,3 hPa 0,0 l/m 0,0 km/h (0 Bft) O-NO 67 0 min 10,2 C 12,5 C 0,0 km/h (0 Bft)
01.08.2021 00:55 14,0 C 20,4 C 14,0 C 13,6 C 12,7 C 0,0 C 79 % 80 % 1011,3 hPa 0,0 l/m 0,0 km/h (0 Bft) O-NO 67 0 min 10,4 C 12,7 C 0,0 km/h (0 Bft)
01.08.2021 01:00 13,9 C 20,4 C 13,9 C 13,5 C 12,8 C 0,0 C 79 % 81 % 1011,4 hPa 0,0 l/m 0,0 km/h (0 Bft) O-NO 67 0 min 10,3 C 12,8 C 0,0 km/h (0 Bft)
01.08.2021 01:05 13,9 C 20,4 C 13,9 C 13,5 C 12,8 C 0,0 C 79 % 81 % 1011,4 hPa 0,0 l/m 0,0 km/h (0 Bft) O-NO 67 0 min 10,3 C 12,8 C 0,0 km/h (0 Bft)
01.08.2021 01:10 13,8 C 20,4 C 13,9 C 13,5 C 12,9 C 0,0 C 79 % 81 % 1011,4 hPa 0,0 l/m 0,0 km/h (0 Bft) O-NO 67 0 min 10,2 C 12,9 C 0,0 km/h (0 Bft)
01.08.2021 01:15 13,9 C 20,4 C 13,8 C 13,5 C 12,8 C 0,0 C 80 % 81 % 1011,4 hPa 0,0 l/m 0,0 km/h (0 Bft) O-NO 67 0 min 10,5 C 12,8 C 0,0 km/h (0 Bft)
01.08.2021 01:20 13,7 C 20,4 C 13,6 C 13,3 C 12,5 C 0,0 C 80 % 80 % 1011,1 hPa 0,0 l/m 0,0 km/h (0 Bft) O-NO 67 0 min 10,3 C 12,5 C 0,0 km/h (0 Bft)
01.08.2021 01:25 13,6 C 20,4 C 13,5 C 13,2 C 12,4 C 0,0 C 80 % 81 % 1011,1 hPa 0,0 l/m 0,0 km/h (0 Bft) O-NO 67 0 min 10,2 C 12,4 C 0,0 km/h (0 Bft)
01.08.2021 01:30 13,6 C 20,4 C 13,5 C 13,2 C 12,3 C 0,0 C 80 % 82 % 1011,1 hPa 0,0 l/m 0,0 km/h (0 Bft) O-NO 67 0 min 10,2 C 12,3 C 0,0 km/h (0 Bft)
01.08.2021 01:35 13,6 C 20,4 C 13,5 C 13,2 C 12,4 C 0,0 C 80 % 82 % 1011,1 hPa 0,0 l/m 0,0 km/h (0 Bft) O-NO 67 0 min 10,2 C 12,4 C 0,0 km/h (0 Bft)
01.08.2021 01:40 13,5 C 20,3 C 13,5 C 13,2 C 12,5 C 0,0 C 81 % 82 % 1011,9 hPa 0,0 l/m 0,0 km/h (0 Bft) O-NO 67 0 min 10,3 C 12,5 C 0,0 km/h (0 Bft)
01.08.2021 01:45 13,5 C 20,3 C 13,5 C 13,2 C 12,5 C 0,0 C 81 % 82 % 1011,9 hPa 0,0 l/m 0,0 km/h (0 Bft) O-NO 67 0 min 10,3 C 12,5 C 0,0 km/h (0 Bft)
01.08.2021 01:50 13,5 C 20,3 C 13,4 C 13,1 C 12,3 C 0,0 C 81 % 82 % 1011,9 hPa 0,0 l/m 0,0 km/h (0 Bft) O-NO 67 0 min 10,3 C 12,3 C 0,0 km/h (0 Bft)
01.08.2021 01:55 13,3 C 20,3 C 13,3 C 12,9 C 12,1 C 0,0 C 81 % 82 % 1011,9 hPa 0,0 l/m 0,0 km/h (0 Bft) O-NO 67 0 min 10,1 C 12,1 C 0,0 km/h (0 Bft)
01.08.2021 02:00 13,2 C 20,3 C 13,3 C 12,8 C 12,0 C 0,0 C 81 % 82 % 1011,6 hPa 0,0 l/m 0,0 km/h (0 Bft) O-NO 67 0 min 10,0 C 12,0 C 0,0 km/h (0 Bft)
01.08.2021 02:05 13,2 C 20,3 C 13,2 C 12,8 C 11,9 C 0,0 C 81 % 82 % 1011,6 hPa 0,0 l/m 0,0 km/h (0 Bft) O-NO 67 0 min 10,0 C 11,9 C 0,0 km/h (0 Bft)
01.08.2021 02:11 13,1 C 20,3 C 13,1 C 12,7 C 11,9 C 0,0 C 82 % 83 % 1011,6 hPa 0,0 l/m 0,0 km/h (0 Bft) N 0 0 min 10,1 C 11,9 C 0,0 km/h (0 Bft)
01.08.2021 02:25 13,1 C 20,3 C 13,1 C 12,8 C 12,1 C 0,0 C 82 % 83 % 1011,7 hPa 0,0 l/m 0,0 km/h (0 Bft) O-NO 67 0 min 10,1 C 12,1 C 0,0 km/h (0 Bft)
01.08.2021 02:39 13,0 C 20,3 C 12,9 C 12,6 C 11,8 C 0,0 C 82 % 83 % 1011,1 hPa 0,0 l/m 0,0 km/h (0 Bft) O-NO 67 0 min 10,0 C 11,8 C 0,0 km/h (0 Bft)
01.08.2021 02:45 12,9 C 20,2 C 12,9 C 12,5 C 11,8 C 0,0 C 82 % 84 % 1011,1 hPa 0,0 l/m 0,0 km/h (0 Bft) O-NO 67 0 min 9,9 C 11,8 C 0,0 km/h (0 Bft)
01.08.2021 02:50 12,8 C 20,2 C 12,9 C 12,4 C 11,7 C 0,0 C 82 % 84 % 1011,1 hPa 0,0 l/m 0,0 km/h (0 Bft) O-NO 67 0 min 9,8 C 11,7 C 0,0 km/h (0 Bft)
01.08.2021 02:55 12,8 C 20,2 C 12,9 C 12,4 C 11,5 C 0,0 C 83 % 84 % 1011,1 hPa 0,0 l/m 0,0 km/h (0 Bft) O-NO 67 0 min 10,0 C 11,5 C 0,0 km/h (0 Bft)
01.08.2021 03:00 12,8 C 20,2 C 12,7 C 12,4 C 11,5 C 0,0 C 83 % 84 % 1011,0 hPa 0,0 l/m 0,0 km/h (0 Bft) O-NO 67 0 min 10,0 C 11,5 C 0,0 km/h (0 Bft)
01.08.2021 03:05 12,7 C 20,2 C 12,7 C 12,3 C 11,5 C 0,0 C 83 % 84 % 1011,0 hPa 0,0 l/m 0,0 km/h (0 Bft) O-NO 67 0 min 9,9 C 11,5 C 0,0 km/h (0 Bft)
01.08.2021 03:10 12,7 C 20,2 C 12,7 C 12,3 C 11,5 C 0,0 C 83 % 85 % 1011,0 hPa 0,0 l/m 0,0 km/h (0 Bft) O-NO 67 0 min 9,9 C 11,5 C 0,0 km/h (0 Bft)
01.08.2021 03:15 12,6 C 20,2 C 12,7 C 12,2 C 11,5 C 0,0 C 83 % 85 % 1011,0 hPa 0,0 l/m 0,0 km/h (0 Bft) O-NO 67 0 min 9,8 C 11,5 C 0,0 km/h (0 Bft)
01.08.2021 03:20 12,7 C 20,2 C 12,7 C 12,2 C 11,3 C 0,0 C 83 % 85 % 1010,9 hPa 0,0 l/m 0,0 km/h (0 Bft) O-NO 67 0 min 9,9 C 11,3 C 0,0 km/h (0 Bft)
01.08.2021 03:25 12,7 C 20,2 C 12,6 C 12,2 C 11,3 C 0,0 C 83 % 85 % 1010,9 hPa 0,0 l/m 0,0 km/h (0 Bft) O-NO 67 0 min 9,9 C 11,3 C 0,0 km/h (0 Bft)
01.08.2021 03:30 12,7 C 20,2 C 12,4 C 12,2 C 11,3 C 0,0 C 83 % 85 % 1010,9 hPa 0,0 l/m 0,0 km/h (0 Bft) O-NO 67 0 min 9,9 C 11,3 C 0,0 km/h (0 Bft)
01.08.2021 03:35 12,5 C 20,2 C 12,4 C 12,1 C 11,3 C 0,0 C 84 % 85 % 1010,9 hPa 0,0 l/m 0,0 km/h (0 Bft) O-NO 67 0 min 9,9 C 11,3 C 0,0 km/h (0 Bft)
01.08.2021 03:40 12,5 C 20,1 C 12,4 C 12,1 C 11,2 C 0,0 C 84 % 86 % 1010,9 hPa 0,0 l/m 0,0 km/h (0 Bft) O-NO 67 0 min 9,9 C 11,2 C 0,0 km/h (0 Bft)
01.08.2021 03:45 12,5 C 20,1 C 12,4 C 12,0 C 11,1 C 0,0 C 84 % 86 % 1010,9 hPa 0,0 l/m 0,0 km/h (0 Bft) O-NO 67 0 min 9,9 C 11,1 C 0,0 km/h (0 Bft)
01.08.2021 03:50 12,5 C 20,1 C 12,3 C 12,0 C 11,1 C 0,0 C 84 % 86 % 1010,9 hPa 0,0 l/m 0,0 km/h (0 Bft) O-NO 67 0 min 9,9 C 11,1 C 0,0 km/h (0 Bft)
01.08.2021 03:55 12,4 C 20,1 C 12,3 C 12,0 C 11,1 C 0,0 C 84 % 86 % 1010,9 hPa 0,0 l/m 0,0 km/h (0 Bft) O-NO 67 0 min 9,8 C 11,1 C 0,0 km/h (0 Bft)
01.08.2021 04:00 12,4 C 20,1 C 12,3 C 12,0 C 11,2 C 0,0 C 84 % 86 % 1011,1 hPa 0,0 l/m 0,0 km/h (0 Bft) O-NO 67 0 min 9,8 C 11,2 C 0,0 km/h (0 Bft)
01.08.2021 04:05 12,4 C 20,0 C 12,3 C 12,0 C 11,3 C 0,0 C 84 % 86 % 1011,1 hPa 0,0 l/m 0,0 km/h (0 Bft) O-NO 67 0 min 9,8 C 11,3 C 0,0 km/h (0 Bft)
01.08.2021 04:11 12,4 C 20,0 C 12,4 C 12,1 C 11,4 C 0,0 C 85 % 86 % 1011,1 hPa 0,0 l/m 0,0 km/h (0 Bft) N 0 0 min 9,9 C 11,4 C 0,0 km/h (0 Bft)
01.08.2021 04:26 12,4 C 20,0 C 12,5 C 12,0 C 11,3 C 0,0 C 85 % 86 % 1011,0 hPa 0,0 l/m 0,0 km/h (0 Bft) O-NO 67 0 min 9,9 C 11,3 C 0,0 km/h (0 Bft)
01.08.2021 04:30 12,4 C 20,0 C 12,5 C 12,0 C 11,3 C 0,0 C 85 % 86 % 1011,0 hPa 0,0 l/m 0,0 km/h (0 Bft) O-NO 67 0 min 9,9 C 11,3 C 0,0 km/h (0 Bft)
01.08.2021 04:35 12,4 C 20,0 C 12,4 C 12,0 C 11,3 C 0,0 C 85 % 86 % 1011,0 hPa 0,0 l/m 0,0 km/h (0 Bft) O-NO 67 0 min 9,9 C 11,3 C 0,0 km/h (0 Bft)
01.08.2021 04:40 12,4 C 20,0 C 12,4 C 12,1 C 11,4 C 0,0 C 85 % 86 % 1010,7 hPa 0,0 l/m 0,0 km/h (0 Bft) O-NO 67 0 min 9,9 C 11,4 C 0,0 km/h (0 Bft)
01.08.2021 04:45 12,4 C 20,0 C 12,5 C 12,1 C 11,5 C 0,0 C 85 % 86 % 1010,7 hPa 0,0 l/m 0,0 km/h (0 Bft) O-NO 67 0 min 9,9 C 11,5 C 0,0 km/h (0 Bft)
01.08.2021 04:50 12,5 C 19,9 C 12,5 C 12,2 C 11,6 C 0,0 C 85 % 86 % 1010,7 hPa 0,0 l/m 0,0 km/h (0 Bft) O-NO 67 0 min 10,0 C 11,6 C 0,0 km/h (0 Bft)
01.08.2021 04:55 12,5 C 19,9 C 12,5 C 12,2 C 11,7 C 0,0 C 85 % 86 % 1010,7 hPa 0,0 l/m 0,0 km/h (0 Bft) O-NO 67 0 min 10,0 C 11,7 C 0,0 km/h (0 Bft)
01.08.2021 05:00 12,4 C 19,9 C 12,6 C 12,2 C 11,7 C 0,0 C 85 % 87 % 1010,9 hPa 0,0 l/m 0,0 km/h (0 Bft) O-NO 67 0 min 9,9 C 11,7 C 0,0 km/h (0 Bft)
01.08.2021 05:05 12,4 C 19,9 C 12,7 C 12,2 C 11,8 C 0,0 C 85 % 87 % 1010,9 hPa 0,0 l/m 0,0 km/h (0 Bft) O-NO 67 0 min 9,9 C 11,8 C 0,0 km/h (0 Bft)
01.08.2021 05:10 12,5 C 19,9 C 12,7 C 12,3 C 11,8 C 0,0 C 86 % 87 % 1010,9 hPa 0,0 l/m 0,0 km/h (0 Bft) O-NO 67 0 min 10,2 C 11,8 C 0,0 km/h (0 Bft)
01.08.2021 05:15 12,5 C 19,9 C 12,7 C 12,3 C 11,8 C 0,0 C 86 % 87 % 1010,9 hPa 0,0 l/m 0,0 km/h (0 Bft) O-NO 67 0 min 10,2 C 11,8 C 0,0 km/h (0 Bft)
01.08.2021 05:20 12,5 C 19,9 C 12,7 C 12,3 C 11,8 C 0,0 C 86 % 86 % 1011,1 hPa 0,0 l/m 0,0 km/h (0 Bft) O-NO 67 0 min 10,2 C 11,8 C 0,0 km/h (0 Bft)
01.08.2021 05:25 12,5 C 19,9 C 12,7 C 12,3 C 11,9 C 0,0 C 86 % 87 % 1011,1 hPa 0,0 l/m 0,0 km/h (0 Bft) O-NO 67 0 min 10,2 C 11,9 C 0,0 km/h (0 Bft)
01.08.2021 05:30 12,5 C 19,9 C 12,7 C 12,3 C 11,8 C 0,0 C 86 % 87 % 1011,1 hPa 0,0 l/m 0,0 km/h (0 Bft) O-NO 67 0 min 10,2 C 11,8 C 0,0 km/h (0 Bft)
01.08.2021 05:35 12,5 C 19,8 C 12,7 C 12,3 C 11,8 C 0,0 C 86 % 87 % 1011,1 hPa 0,0 l/m 0,0 km/h (0 Bft) O-NO 67 0 min 10,2 C 11,8 C 0,0 km/h (0 Bft)
01.08.2021 05:40 12,5 C 19,8 C 12,7 C 12,3 C 11,9 C 0,0 C 86 % 87 % 1010,9 hPa 0,0 l/m 0,0 km/h (0 Bft) O-NO 67 0 min 10,2 C 11,9 C 0,0 km/h (0 Bft)
01.08.2021 05:45 12,5 C 19,8 C 12,7 C 12,3 C 11,9 C 0,0 C 86 % 87 % 1010,9 hPa 0,0 l/m 0,0 km/h (0 Bft) O-NO 67 0 min 10,2 C 11,9 C 0,0 km/h (0 Bft)
01.08.2021 05:50 12,6 C 19,8 C 12,7 C 12,4 C 11,9 C 0,0 C 86 % 87 % 1010,9 hPa 0,0 l/m 0,0 km/h (0 Bft) O-NO 67 0 min 10,3 C 11,9 C 0,0 km/h (0 Bft)
01.08.2021 05:55 12,7 C 19,8 C 12,7 C 12,4 C 11,9 C 0,0 C 86 % 87 % 1010,9 hPa 0,0 l/m 0,0 km/h (0 Bft) O-NO 67 0 min 10,4 C 11,9 C 0,0 km/h (0 Bft)
01.08.2021 06:00 12,7 C 19,8 C 12,7 C 12,4 C 11,9 C 0,0 C 86 % 87 % 1010,6 hPa 0,0 l/m 0,0 km/h (0 Bft) O-NO 67 0 min 10,4 C 11,9 C 0,0 km/h (0 Bft)
01.08.2021 06:05 12,7 C 19,8 C 12,7 C 12,5 C 12,0 C 0,0 C 86 % 87 % 1010,6 hPa 0,0 l/m 0,0 km/h (0 Bft) O-NO 67 0 min 10,4 C 12,0 C 0,0 km/h (0 Bft)
01.08.2021 06:10 12,7 C 19,7 C 12,7 C 12,5 C 12,0 C 0,0 C 86 % 87 % 1010,6 hPa 0,0 l/m 0,0 km/h (0 Bft) O-NO 67 0 min 10,4 C 12,0 C 0,0 km/h (0 Bft)
01.08.2021 06:15 12,7 C 19,7 C 12,7 C 12,5 C 12,1 C 0,0 C 86 % 87 % 1010,6 hPa 0,0 l/m 0,0 km/h (0 Bft) O-NO 67 0 min 10,4 C 12,1 C 0,0 km/h (0 Bft)
01.08.2021 06:20 12,7 C 19,8 C 12,8 C 12,5 C 12,2 C 0,0 C 86 % 87 % 1010,6 hPa 0,0 l/m 0,0 km/h (0 Bft) O-NO 67 0 min 10,4 C 12,2 C 0,0 km/h (0 Bft)
01.08.2021 06:25 12,6 C 19,7 C 12,9 C 12,5 C 12,3 C 0,0 C 86 % 87 % 1010,6 hPa 0,0 l/m 0,0 km/h (0 Bft) O-NO 67 0 min 10,3 C 12,3 C 0,0 km/h (0 Bft)
01.08.2021 06:30 12,7 C 19,7 C 12,9 C 12,6 C 12,4 C 0,0 C 86 % 87 % 1010,6 hPa 0,0 l/m 0,0 km/h (0 Bft) O-NO 67 0 min 10,4 C 12,4 C 0,0 km/h (0 Bft)
01.08.2021 06:35 12,7 C 19,7 C 13,0 C 12,6 C 12,5 C 0,0 C 86 % 87 % 1010,6 hPa 0,0 l/m 0,0 km/h (0 Bft) O-NO 67 0 min 10,4 C 12,5 C 0,0 km/h (0 Bft)
01.08.2021 06:40 12,8 C 19,7 C 13,0 C 12,7 C 12,6 C 0,0 C 86 % 87 % 1010,7 hPa 0,0 l/m 0,0 km/h (0 Bft) O-NO 67 0 min 10,5 C 12,6 C 0,0 km/h (0 Bft)
01.08.2021 06:45 12,8 C 19,7 C 13,1 C 12,8 C 12,7 C 0,0 C 86 % 87 % 1010,7 hPa 0,0 l/m 0,0 km/h (0 Bft) O-NO 67 0 min 10,5 C 12,7 C 0,0 km/h (0 Bft)
01.08.2021 06:50 12,8 C 19,7 C 13,1 C 12,8 C 12,8 C 0,0 C 86 % 87 % 1010,7 hPa 0,0 l/m 0,0 km/h (0 Bft) O-NO 67 0 min 10,5 C 12,8 C 0,0 km/h (0 Bft)
01.08.2021 06:55 12,8 C 19,7 C 13,1 C 12,9 C 12,9 C 0,1 C 86 % 87 % 1010,7 hPa 0,0 l/m 0,0 km/h (0 Bft) O-NO 67 0 min 10,5 C 12,9 C 0,0 km/h (0 Bft)
01.08.2021 07:00 12,9 C 19,7 C 13,2 C 13,0 C 13,0 C 0,1 C 87 % 87 % 1010,4 hPa 0,0 l/m 0,0 km/h (0 Bft) O-NO 67 0 min 10,8 C 13,0 C 0,0 km/h (0 Bft)
01.08.2021 07:05 12,9 C 19,6 C 13,2 C 13,1 C 13,1 C 0,2 C 87 % 87 % 1010,4 hPa 0,0 l/m 0,0 km/h (0 Bft) O-NO 67 0 min 10,8 C 13,1 C 0,0 km/h (0 Bft)
01.08.2021 07:10 13,1 C 19,6 C 13,2 C 13,1 C 13,1 C 0,0 C 87 % 87 % 1010,4 hPa 0,0 l/m 0,0 km/h (0 Bft) O-NO 67 0 min 11,0 C 13,1 C 0,0 km/h (0 Bft)
01.08.2021 07:15 13,1 C 19,6 C 13,2 C 13,1 C 13,1 C 0,0 C 87 % 87 % 1010,4 hPa 0,0 l/m 0,0 km/h (0 Bft) O-NO 67 0 min 11,0 C 13,1 C 0,0 km/h (0 Bft)
01.08.2021 07:20 13,2 C 19,7 C 13,5 C 13,6 C 13,6 C 0,4 C 87 % 87 % 1010,6 hPa 0,0 l/m 0,0 km/h (0 Bft) O-NO 67 0 min 11,1 C 13,6 C 0,0 km/h (0 Bft)
01.08.2021 07:25 13,3 C 19,6 C 13,5 C 13,6 C 13,6 C 0,3 C 87 % 87 % 1010,6 hPa 0,0 l/m 0,0 km/h (0 Bft) O-NO 67 0 min 11,2 C 13,6 C 0,0 km/h (0 Bft)
01.08.2021 07:30 13,3 C 19,6 C 13,5 C 13,8 C 13,8 C 0,5 C 87 % 87 % 1010,6 hPa 0,0 l/m 0,0 km/h (0 Bft) O-NO 67 0 min 11,2 C 13,8 C 0,0 km/h (0 Bft)
01.08.2021 07:35 13,3 C 19,6 C 13,6 C 13,8 C 13,8 C 0,5 C 87 % 87 % 1010,6 hPa 0,0 l/m 0,0 km/h (0 Bft) O-NO 67 0 min 11,2 C 13,8 C 0,0 km/h (0 Bft)
01.08.2021 07:40 13,5 C 19,6 C 13,7 C 13,9 C 13,9 C 0,4 C 87 % 87 % 1010,4 hPa 0,0 l/m 0,0 km/h (0 Bft) O-NO 67 0 min 11,4 C 13,9 C 0,0 km/h (0 Bft)
01.08.2021 07:45 13,5 C 19,6 C 13,7 C 14,0 C 14,0 C 0,5 C 87 % 87 % 1010,4 hPa 0,0 l/m 0,0 km/h (0 Bft) O-NO 67 0 min 11,4 C 14,0 C 0,0 km/h (0 Bft)
01.08.2021 07:50 13,6 C 19,6 C 13,7 C 14,1 C 14,1 C 0,5 C 87 % 87 % 1010,4 hPa 0,0 l/m 0,0 km/h (0 Bft) O-NO 67 0 min 11,5 C 14,1 C 0,0 km/h (0 Bft)
01.08.2021 07:55 13,6 C 19,6 C 13,8 C 14,3 C 14,3 C 0,7 C 87 % 87 % 1010,4 hPa 0,0 l/m 0,0 km/h (0 Bft) O-NO 67 0 min 11,5 C 14,3 C 0,0 km/h (0 Bft)
01.08.2021 08:00 13,7 C 19,6 C 13,8 C 14,3 C 14,3 C 0,6 C 87 % 87 % 1010,4 hPa 0,0 l/m 0,0 km/h (0 Bft) O-NO 67 0 min 11,6 C 14,3 C 0,0 km/h (0 Bft)
01.08.2021 08:05 13,9 C 19,6 C 13,9 C 14,4 C 14,4 C 0,5 C 87 % 87 % 1010,4 hPa 0,0 l/m 0,0 km/h (0 Bft) O-NO 67 0 min 11,8 C 14,4 C 0,0 km/h (0 Bft)
01.08.2021 08:10 13,9 C 19,6 C 14,0 C 14,6 C 14,6 C 0,7 C 87 % 87 % 1010,4 hPa 0,0 l/m 0,0 km/h (0 Bft) O-NO 67 0 min 11,8 C 14,6 C 0,0 km/h (0 Bft)
01.08.2021 08:15 14,0 C 19,6 C 14,1 C 14,8 C 14,8 C 0,8 C 87 % 87 % 1010,4 hPa 0,0 l/m 0,0 km/h (0 Bft) O-NO 67 0 min 11,9 C 14,8 C 0,0 km/h (0 Bft)
01.08.2021 08:20 14,0 C 19,5 C 14,2 C 15,1 C 15,1 C 1,1 C 87 % 86 % 1010,3 hPa 0,0 l/m 0,0 km/h (0 Bft) O-NO 67 0 min 11,9 C 15,1 C 0,0 km/h (0 Bft)
01.08.2021 08:25 14,3 C 19,5 C 14,3 C 15,3 C 15,3 C 1,0 C 87 % 86 % 1010,3 hPa 0,0 l/m 0,0 km/h (0 Bft) O-NO 67 0 min 12,2 C 15,3 C 0,0 km/h (0 Bft)
01.08.2021 08:30 14,3 C 19,4 C 14,5 C 15,7 C 15,7 C 1,4 C 87 % 86 % 1010,3 hPa 0,0 l/m 0,0 km/h (0 Bft) O-NO 67 0 min 12,2 C 15,7 C 0,0 km/h (0 Bft)
01.08.2021 08:35 14,4 C 19,4 C 14,7 C 16,1 C 16,1 C 1,7 C 87 % 86 % 1010,3 hPa 0,0 l/m 0,0 km/h (0 Bft) O-NO 67 0 min 12,3 C 16,1 C 0,0 km/h (0 Bft)
01.08.2021 08:40 14,6 C 19,4 C 14,9 C 16,6 C 16,6 C 2,0 C 87 % 85 % 1010,9 hPa 0,0 l/m 0,0 km/h (0 Bft) O-NO 67 0 min 12,5 C 16,6 C 0,0 km/h (0 Bft)
01.08.2021 08:45 14,8 C 19,4 C 15,0 C 16,7 C 16,7 C 1,9 C 87 % 85 % 1010,9 hPa 0,0 l/m 0,0 km/h (0 Bft) O-NO 67 0 min 12,7 C 16,7 C 0,0 km/h (0 Bft)
01.08.2021 08:50 15,1 C 19,4 C 15,1 C 16,8 C 16,8 C 1,7 C 87 % 85 % 1010,9 hPa 0,0 l/m 0,0 km/h (0 Bft) O-NO 67 0 min 13,0 C 16,8 C 0,0 km/h (0 Bft)
01.08.2021 08:55 15,2 C 19,4 C 15,2 C 16,7 C 16,7 C 1,5 C 86 % 85 % 1010,9 hPa 0,0 l/m 0,0 km/h (0 Bft) O-NO 67 0 min 12,9 C 16,7 C 0,0 km/h (0 Bft)
01.08.2021 09:00 15,3 C 19,4 C 15,3 C 16,9 C 16,9 C 1,6 C 86 % 85 % 1011,0 hPa 0,0 l/m 0,0 km/h (0 Bft) O-NO 67 0 min 13,0 C 16,9 C 0,0 km/h (0 Bft)
01.08.2021 09:05 15,5 C 19,4 C 15,5 C 17,1 C 17,1 C 1,6 C 86 % 86 % 1011,0 hPa 0,0 l/m 0,0 km/h (0 Bft) O-NO 67 0 min 13,2 C 17,1 C 0,0 km/h (0 Bft)
01.08.2021 09:10 15,7 C 19,2 C 15,7 C 17,4 C 17,4 C 1,7 C 86 % 85 % 1011,0 hPa 0,0 l/m 0,0 km/h (0 Bft) O-NO 67 0 min 13,4 C 17,4 C 0,0 km/h (0 Bft)
01.08.2021 09:15 15,9 C 19,2 C 15,8 C 17,6 C 17,6 C 1,7 C 85 % 85 % 1011,0 hPa 0,0 l/m 0,0 km/h (0 Bft) O-NO 67 0 min 13,4 C 17,6 C 0,0 km/h (0 Bft)
01.08.2021 09:20 16,0 C 19,1 C 15,9 C 17,8 C 17,8 C 1,8 C 85 % 84 % 1010,8 hPa 0,0 l/m 0,0 km/h (0 Bft) O-NO 67 0 min 13,5 C 17,8 C 0,0 km/h (0 Bft)
01.08.2021 09:25 16,1 C 19,1 C 15,9 C 17,9 C 17,9 C 1,8 C 84 % 84 % 1010,8 hPa 0,0 l/m 0,0 km/h (0 Bft) O-NO 67 0 min 13,4 C 17,9 C 0,0 km/h (0 Bft)
01.08.2021 09:30 16,3 C 19,2 C 15,9 C 17,8 C 17,8 C 1,5 C 83 % 84 % 1010,8 hPa 0,0 l/m 0,0 km/h (0 Bft) O-NO 67 0 min 13,4 C 17,8 C 0,0 km/h (0 Bft)
01.08.2021 09:35 16,3 C 19,2 C 16,0 C 17,7 C 17,7 C 1,4 C 83 % 83 % 1010,8 hPa 0,0 l/m 0,0 km/h (0 Bft) O-NO 67 0 min 13,4 C 17,7 C 0,0 km/h (0 Bft)
01.08.2021 09:40 16,4 C 19,2 C 16,1 C 17,7 C 17,7 C 1,3 C 82 % 83 % 1010,6 hPa 0,0 l/m 0,0 km/h (0 Bft) O-NO 67 0 min 13,3 C 17,7 C 0,0 km/h (0 Bft)
01.08.2021 09:45 16,6 C 19,2 C 16,1 C 17,6 C 17,6 C 1,0 C 82 % 83 % 1010,6 hPa 0,0 l/m 0,0 km/h (0 Bft) O-NO 67 0 min 13,5 C 17,6 C 0,0 km/h (0 Bft)
01.08.2021 09:50 16,7 C 19,2 C 16,3 C 17,8 C 17,8 C 1,1 C 82 % 83 % 1010,6 hPa 0,0 l/m 0,0 km/h (0 Bft) O-NO 67 0 min 13,6 C 17,8 C 0,0 km/h (0 Bft)
01.08.2021 09:55 16,8 C 19,2 C 16,3 C 17,9 C 17,9 C 1,1 C 82 % 83 % 1010,6 hPa 0,0 l/m 0,0 km/h (0 Bft) O-NO 67 0 min 13,7 C 17,9 C 0,0 km/h (0 Bft)
01.08.2021 10:00 17,0 C 19,2 C 16,3 C 18,0 C 18,0 C 1,0 C 82 % 83 % 1010,6 hPa 0,0 l/m 0,0 km/h (0 Bft) O-NO 67 0 min 13,9 C 18,0 C 0,0 km/h (0 Bft)
01.08.2021 10:05 17,0 C 19,1 C 16,3 C 18,1 C 18,1 C 1,1 C 81 % 83 % 1010,6 hPa 0,0 l/m 0,0 km/h (0 Bft) O-NO 67 0 min 13,7 C 18,1 C 0,0 km/h (0 Bft)
01.08.2021 10:10 17,1 C 19,1 C 16,5 C 18,3 C 18,3 C 1,2 C 80 % 82 % 1010,6 hPa 0,0 l/m 0,0 km/h (0 Bft) O-NO 67 0 min 13,6 C 18,3 C 0,0 km/h (0 Bft)
01.08.2021 10:15 17,2 C 19,1 C 16,5 C 18,3 C 18,3 C 1,1 C 80 % 82 % 1010,6 hPa 0,0 l/m 0,0 km/h (0 Bft) O-NO 67 0 min 13,7 C 18,3 C 0,0 km/h (0 Bft)
01.08.2021 10:20 17,3 C 19,1 C 16,6 C 18,3 C 18,3 C 1,0 C 79 % 82 % 1010,3 hPa 0,0 l/m 0,0 km/h (0 Bft) O-NO 67 0 min 13,6 C 18,3 C 0,0 km/h (0 Bft)
01.08.2021 10:25 17,3 C 19,1 C 16,6 C 18,1 C 18,1 C 0,8 C 79 % 82 % 1010,3 hPa 0,0 l/m 0,0 km/h (0 Bft) O-NO 67 0 min 13,6 C 18,1 C 0,0 km/h (0 Bft)
01.08.2021 10:30 17,4 C 19,2 C 16,6 C 17,8 C 17,8 C 0,4 C 79 % 82 % 1010,3 hPa 0,0 l/m 0,0 km/h (0 Bft) O-NO 67 0 min 13,7 C 17,8 C 0,0 km/h (0 Bft)
01.08.2021 10:35 17,5 C 19,1 C 16,5 C 17,7 C 17,7 C 0,2 C 78 % 82 % 1010,3 hPa 0,0 l/m 0,0 km/h (0 Bft) O-NO 67 0 min 13,6 C 17,7 C 0,0 km/h (0 Bft)
01.08.2021 10:40 17,4 C 19,2 C 16,5 C 17,5 C 17,5 C 0,1 C 78 % 82 % 1010,9 hPa 0,0 l/m 0,0 km/h (0 Bft) O-NO 67 0 min 13,5 C 17,5 C 0,0 km/h (0 Bft)
01.08.2021 10:45 17,4 C 19,1 C 16,5 C 17,4 C 17,3 C 0,0 C 78 % 82 % 1010,9 hPa 0,0 l/m 0,0 km/h (0 Bft) O-NO 67 0 min 13,5 C 17,3 C 0,0 km/h (0 Bft)
01.08.2021 10:50 17,5 C 19,2 C 16,4 C 17,2 C 16,7 C 0,0 C 78 % 83 % 1010,9 hPa 0,0 l/m 0,0 km/h (0 Bft) O-NO 67 0 min 13,6 C 16,7 C 0,0 km/h (0 Bft)
01.08.2021 10:55 17,6 C 19,3 C 16,3 C 17,3 C 16,6 C 0,0 C 79 % 83 % 1010,9 hPa 0,0 l/m 0,0 km/h (0 Bft) O-NO 67 0 min 13,9 C 16,6 C 0,0 km/h (0 Bft)
01.08.2021 11:00 17,7 C 19,3 C 16,3 C 17,2 C 16,3 C 0,0 C 79 % 84 % 1011,1 hPa 0,0 l/m 0,0 km/h (0 Bft) O-NO 67 0 min 14,0 C 16,3 C 0,0 km/h (0 Bft)
01.08.2021 11:05 17,7 C 19,3 C 16,3 C 17,2 C 16,3 C 0,0 C 79 % 84 % 1011,1 hPa 0,0 l/m 0,0 km/h (0 Bft) O-NO 67 0 min 14,0 C 16,3 C 0,0 km/h (0 Bft)
01.08.2021 11:10 17,6 C 19,4 C 16,1 C 17,1 C 16,1 C 0,0 C 79 % 85 % 1011,1 hPa 0,0 l/m 0,0 km/h (0 Bft) O-NO 67 0 min 13,9 C 16,1 C 0,0 km/h (0 Bft)
01.08.2021 11:15 17,6 C 19,4 C 16,1 C 17,1 C 16,1 C 0,0 C 79 % 85 % 1011,1 hPa 0,0 l/m 0,0 km/h (0 Bft) O-NO 67 0 min 13,9 C 16,1 C 0,0 km/h (0 Bft)
01.08.2021 11:20 17,6 C 19,4 C 16,0 C 17,1 C 16,0 C 0,0 C 80 % 86 % 1010,8 hPa 0,0 l/m 0,0 km/h (0 Bft) O-NO 67 0 min 14,1 C 16,0 C 0,0 km/h (0 Bft)
01.08.2021 11:25 17,5 C 19,4 C 16,0 C 17,0 C 16,0 C 0,0 C 80 % 86 % 1010,8 hPa 0,0 l/m 0,0 km/h (0 Bft) O-NO 67 0 min 14,0 C 16,0 C 0,0 km/h (0 Bft)
01.08.2021 11:30 17,5 C 19,4 C 15,9 C 17,0 C 15,9 C 0,0 C 80 % 86 % 1010,8 hPa 0,0 l/m 0,0 km/h (0 Bft) O-NO 67 0 min 14,0 C 15,9 C 0,0 km/h (0 Bft)
01.08.2021 11:35 17,4 C 19,5 C 15,8 C 16,9 C 15,9 C 0,0 C 81 % 87 % 1010,8 hPa 0,0 l/m 0,0 km/h (0 Bft) O-NO 67 0 min 14,1 C 15,9 C 0,0 km/h (0 Bft)
01.08.2021 11:40 17,3 C 19,5 C 15,7 C 16,8 C 15,9 C 0,0 C 81 % 88 % 1010,6 hPa 0,0 l/m 0,0 km/h (0 Bft) O-NO 67 0 min 14,0 C 15,9 C 0,0 km/h (0 Bft)
01.08.2021 11:45 17,2 C 19,5 C 15,6 C 16,8 C 15,9 C 0,0 C 81 % 88 % 1010,6 hPa 0,0 l/m 0,0 km/h (0 Bft) O-NO 67 0 min 13,9 C 15,9 C 0,0 km/h (0 Bft)
01.08.2021 11:50 17,3 C 19,5 C 15,6 C 16,9 C 16,0 C 0,0 C 82 % 89 % 1010,6 hPa 0,7 l/m 0,0 km/h (0 Bft) O-NO 67 0 min 14,2 C 16,0 C 0,0 km/h (0 Bft)
01.08.2021 11:55 17,3 C 19,5 C 15,6 C 16,9 C 16,1 C 0,0 C 82 % 89 % 1010,6 hPa 0,0 l/m 0,0 km/h (0 Bft) O-NO 67 0 min 14,2 C 16,1 C 0,0 km/h (0 Bft)
01.08.2021 12:00 17,1 C 19,5 C 15,5 C 16,7 C 16,0 C 0,0 C 82 % 89 % 1010,4 hPa 0,0 l/m 0,0 km/h (0 Bft) O-NO 67 0 min 14,0 C 16,0 C 0,0 km/h (0 Bft)
01.08.2021 12:05 17,1 C 19,5 C 15,6 C 16,8 C 16,1 C 0,0 C 82 % 89 % 1010,4 hPa 0,0 l/m 0,0 km/h (0 Bft) O-NO 67 0 min 14,0 C 16,1 C 0,0 km/h (0 Bft)
01.08.2021 12:10 17,3 C 19,5 C 15,7 C 17,0 C 16,3 C 0,0 C 83 % 90 % 1010,4 hPa 0,0 l/m 0,0 km/h (0 Bft) O-NO 67 0 min 14,4 C 16,3 C 0,0 km/h (0 Bft)
01.08.2021 12:15 17,3 C 19,5 C 15,6 C 17,0 C 16,3 C 0,0 C 83 % 90 % 1010,4 hPa 0,0 l/m 0,0 km/h (0 Bft) O-NO 67 0 min 14,4 C 16,3 C 0,0 km/h (0 Bft)
01.08.2021 12:20 17,4 C 19,5 C 15,7 C 17,1 C 16,4 C 0,0 C 83 % 90 % 1010,4 hPa 0,0 l/m 0,0 km/h (0 Bft) O-NO 67 0 min 14,5 C 16,4 C 0,0 km/h (0 Bft)
01.08.2021 12:25 17,4 C 19,4 C 15,8 C 17,1 C 16,6 C 0,0 C 84 % 90 % 1010,4 hPa 0,0 l/m 0,0 km/h (0 Bft) O-NO 67 0 min 14,7 C 16,6 C 0,0 km/h (0 Bft)
01.08.2021 12:30 17,5 C 19,4 C 15,9 C 17,3 C 17,0 C 0,0 C 84 % 91 % 1010,4 hPa 0,0 l/m 0,0 km/h (0 Bft) O-SO 112 0 min 14,8 C 17,0 C 0,0 km/h (0 Bft)
01.08.2021 12:35 17,6 C 19,4 C 16,0 C 17,5 C 17,2 C 0,0 C 84 % 91 % 1010,4 hPa 0,0 l/m 0,0 km/h (0 Bft) O-SO 112 0 min 14,9 C 17,2 C 0,0 km/h (0 Bft)
01.08.2021 12:40 17,7 C 19,4 C 16,1 C 17,6 C 17,4 C 0,0 C 84 % 91 % 1010,1 hPa 0,7 l/m 0,0 km/h (0 Bft) O-SO 112 0 min 15,0 C 17,4 C 0,0 km/h (0 Bft)
01.08.2021 12:45 17,9 C 19,4 C 16,2 C 17,8 C 17,5 C 0,0 C 84 % 91 % 1010,1 hPa 0,0 l/m 0,0 km/h (0 Bft) O-SO 112 0 min 15,2 C 17,5 C 0,0 km/h (0 Bft)
01.08.2021 12:50 17,9 C 19,4 C 16,4 C 17,9 C 17,8 C 0,0 C 84 % 91 % 1010,1 hPa 0,0 l/m 0,0 km/h (0 Bft) O-SO 112 0 min 15,2 C 17,8 C 0,0 km/h (0 Bft)
01.08.2021 12:55 18,1 C 19,4 C 16,4 C 18,0 C 17,9 C 0,0 C 84 % 91 % 1010,1 hPa 0,0 l/m 0,0 km/h (0 Bft) O-SO 112 0 min 15,4 C 17,9 C 0,0 km/h (0 Bft)
01.08.2021 13:00 18,2 C 19,4 C 16,5 C 18,2 C 18,2 C 0,0 C 84 % 90 % 1009,9 hPa 0,0 l/m 0,0 km/h (0 Bft) O-SO 112 0 min 15,4 C 18,2 C 0,0 km/h (0 Bft)
01.08.2021 13:05 18,1 C 19,4 C 16,6 C 18,4 C 18,4 C 0,3 C 83 % 90 % 1009,9 hPa 0,0 l/m 0,0 km/h (0 Bft) O-SO 112 0 min 15,2 C 18,4 C 0,0 km/h (0 Bft)
01.08.2021 13:10 18,2 C 19,4 C 16,7 C 18,5 C 18,5 C 0,3 C 83 % 90 % 1009,9 hPa 0,0 l/m 0,0 km/h (0 Bft) O-SO 112 0 min 15,3 C 18,5 C 0,0 km/h (0 Bft)
01.08.2021 13:15 18,2 C 19,4 C 16,7 C 18,5 C 18,5 C 0,3 C 83 % 90 % 1009,9 hPa 0,0 l/m 0,0 km/h (0 Bft) O-SO 112 0 min 15,3 C 18,5 C 0,0 km/h (0 Bft)
01.08.2021 13:20 18,7 C 19,5 C 17,1 C 19,7 C 19,7 C 1,0 C 82 % 90 % 1010,1 hPa 0,0 l/m 0,0 km/h (0 Bft) O 90 0 min 15,6 C 19,7 C 0,0 km/h (0 Bft)
01.08.2021 13:25 18,7 C 19,5 C 17,2 C 20,0 C 20,0 C 1,3 C 82 % 90 % 1010,1 hPa 0,0 l/m 0,2 km/h (0 Bft) S 180 0 min 15,6 C 20,0 C 2,4 km/h (1 Bft)
01.08.2021 13:30 18,7 C 19,5 C 17,1 C 19,8 C 19,8 C 1,1 C 81 % 89 % 1010,1 hPa 0,0 l/m 0,2 km/h (0 Bft) S 180 0 min 15,4 C 19,8 C 0,0 km/h (0 Bft)
01.08.2021 13:35 18,6 C 19,5 C 16,9 C 19,4 C 19,4 C 0,8 C 80 % 89 % 1010,1 hPa 0,0 l/m 0,2 km/h (0 Bft) S 180 0 min 15,1 C 19,4 C 0,0 km/h (0 Bft)
01.08.2021 13:40 18,5 C 19,5 C 16,8 C 19,2 C 19,2 C 0,7 C 80 % 89 % 1010,6 hPa 0,0 l/m 0,0 km/h (0 Bft) S 180 0 min 15,0 C 19,2 C 0,0 km/h (0 Bft)
01.08.2021 13:45 18,5 C 19,5 C 16,8 C 19,1 C 19,1 C 0,6 C 81 % 89 % 1010,6 hPa 0,0 l/m 0,0 km/h (0 Bft) S 180 0 min 15,2 C 19,1 C 0,0 km/h (0 Bft)
01.08.2021 13:50 18,5 C 19,5 C 16,7 C 19,0 C 19,0 C 0,5 C 80 % 89 % 1010,6 hPa 0,0 l/m 0,0 km/h (0 Bft) S 180 0 min 15,0 C 19,0 C 0,0 km/h (0 Bft)
01.08.2021 13:55 18,4 C 19,5 C 16,7 C 18,8 C 18,8 C 0,4 C 80 % 89 % 1010,6 hPa 0,0 l/m 0,0 km/h (0 Bft) S 180 0 min 14,9 C 18,8 C 0,0 km/h (0 Bft)
01.08.2021 14:00 18,5 C 19,5 C 16,7 C 19,0 C 19,0 C 0,5 C 80 % 89 % 1010,4 hPa 0,0 l/m 0,0 km/h (0 Bft) S 180 0 min 15,0 C 19,0 C 0,0 km/h (0 Bft)
01.08.2021 14:05 18,5 C 19,5 C 16,7 C 19,0 C 19,0 C 0,5 C 81 % 89 % 1010,4 hPa 0,0 l/m 0,0 km/h (0 Bft) S 180 0 min 15,2 C 19,0 C 0,0 km/h (0 Bft)
01.08.2021 14:10 18,4 C 19,5 C 16,9 C 19,4 C 19,4 C 1,0 C 81 % 89 % 1010,4 hPa 0,0 l/m 0,0 km/h (0 Bft) S 180 0 min 15,1 C 19,4 C 0,0 km/h (0 Bft)
01.08.2021 14:15 18,5 C 19,5 C 17,1 C 20,1 C 20,1 C 1,6 C 81 % 89 % 1010,4 hPa 0,0 l/m 0,0 km/h (0 Bft) S 180 0 min 15,2 C 20,1 C 0,0 km/h (0 Bft)
01.08.2021 14:20 18,7 C 19,4 C 17,6 C 21,4 C 21,4 C 2,7 C 81 % 90 % 1009,9 hPa 0,0 l/m 0,0 km/h (0 Bft) S 180 0 min 15,4 C 21,4 C 0,0 km/h (0 Bft)
01.08.2021 14:25 18,8 C 19,5 C 17,6 C 22,2 C 22,2 C 3,4 C 81 % 89 % 1009,9 hPa 0,0 l/m 0,0 km/h (0 Bft) S-SW 202 5 min 15,5 C 22,2 C 0,0 km/h (0 Bft)
01.08.2021 14:30 18,8 C 19,5 C 17,7 C 22,5 C 22,5 C 3,7 C 80 % 88 % 1009,9 hPa 0,0 l/m 0,5 km/h (0 Bft) NO 45 5 min 15,3 C 22,5 C 3,7 km/h (1 Bft)
01.08.2021 14:35 18,8 C 19,4 C 17,9 C 23,0 C 23,0 C 4,2 C 80 % 87 % 1009,9 hPa 0,0 l/m 0,6 km/h (0 Bft) O-NO 67 5 min 15,3 C 23,0 C 0,0 km/h (0 Bft)
01.08.2021 14:40 18,9 C 19,3 C 18,1 C 24,0 C 24,0 C 5,1 C 80 % 87 % 1009,8 hPa 0,0 l/m 0,5 km/h (0 Bft) W 270 5 min 15,4 C 24,0 C 0,0 km/h (0 Bft)
01.08.2021 14:45 18,8 C 19,5 C 18,0 C 23,7 C 23,7 C 4,9 C 79 % 87 % 1009,8 hPa 0,0 l/m 0,3 km/h (0 Bft) O-SO 112 5 min 15,1 C 23,7 C 0,0 km/h (0 Bft)
01.08.2021 14:50 19,1 C 19,4 C 18,1 C 23,7 C 23,7 C 4,6 C 80 % 87 % 1009,8 hPa 0,0 l/m 0,0 km/h (0 Bft) O-SO 112 5 min 15,6 C 23,7 C 0,0 km/h (0 Bft)
01.08.2021 14:55 19,0 C 19,4 C 18,2 C 23,6 C 23,6 C 4,6 C 79 % 86 % 1009,8 hPa 0,0 l/m 0,3 km/h (0 Bft) N-NO 22 5 min 15,3 C 23,6 C 0,0 km/h (0 Bft)
01.08.2021 15:00 19,2 C 19,3 C 18,2 C 23,2 C 23,2 C 4,0 C 78 % 86 % 1009,7 hPa 0,0 l/m 0,3 km/h (0 Bft) W-SW 247 5 min 15,3 C 23,2 C 0,0 km/h (0 Bft)
01.08.2021 15:05 19,2 C 19,3 C 18,2 C 23,1 C 23,1 C 3,9 C 78 % 86 % 1009,7 hPa 0,0 l/m 0,0 km/h (0 Bft) W-SW 247 5 min 15,3 C 23,1 C 0,0 km/h (0 Bft)
01.08.2021 15:10 19,3 C 19,3 C 18,4 C 23,2 C 23,2 C 3,9 C 78 % 86 % 1009,7 hPa 0,0 l/m 0,0 km/h (0 Bft) W-SW 247 5 min 15,4 C 23,2 C 0,0 km/h (0 Bft)
01.08.2021 15:15 19,5 C 19,3 C 18,6 C 24,3 C 24,3 C 4,8 C 78 % 86 % 1009,7 hPa 0,0 l/m 0,3 km/h (0 Bft) NO 45 5 min 15,6 C 24,3 C 3,1 km/h (1 Bft)
01.08.2021 15:20 19,7 C 19,2 C 18,9 C 25,2 C 25,2 C 5,5 C 78 % 85 % 1009,5 hPa 0,0 l/m 0,3 km/h (0 Bft) W-SW 247 5 min 15,8 C 25,2 C 0,0 km/h (0 Bft)
01.08.2021 15:25 19,9 C 19,2 C 19,2 C 26,3 C 26,3 C 6,4 C 76 % 84 % 1009,5 hPa 0,0 l/m 0,6 km/h (0 Bft) N-NO 22 5 min 15,5 C 26,3 C 0,0 km/h (0 Bft)
01.08.2021 15:30 20,1 C 19,2 C 19,3 C 26,9 C 26,9 C 6,8 C 77 % 84 % 1009,5 hPa 0,0 l/m 0,5 km/h (0 Bft) O-NO 67 5 min 15,9 C 26,9 C 4,8 km/h (1 Bft)
01.08.2021 15:35 20,2 C 19,1 C 19,4 C 27,1 C 27,1 C 6,9 C 76 % 84 % 1009,5 hPa 0,0 l/m 1,0 km/h (0 Bft) W-SW 247 5 min 15,8 C 27,1 C 0,0 km/h (0 Bft)
01.08.2021 15:40 20,3 C 19,2 C 19,5 C 26,6 C 26,6 C 6,3 C 75 % 82 % 1009,4 hPa 0,0 l/m 1,6 km/h (1 Bft) NO 45 5 min 15,7 C 26,6 C 4,2 km/h (1 Bft)
01.08.2021 15:45 20,1 C 19,2 C 19,5 C 26,6 C 26,6 C 6,5 C 74 % 81 % 1009,4 hPa 0,0 l/m 1,4 km/h (1 Bft) O-NO 67 5 min 15,3 C 26,6 C 3,5 km/h (1 Bft)
01.08.2021 15:50 20,1 C 19,2 C 19,7 C 27,8 C 27,8 C 7,7 C 74 % 81 % 1009,4 hPa 0,0 l/m 1,3 km/h (1 Bft) W-SW 247 5 min 15,3 C 27,8 C 5,3 km/h (1 Bft)
01.08.2021 15:55 20,4 C 19,2 C 19,9 C 28,8 C 28,8 C 8,4 C 75 % 81 % 1009,4 hPa 0,0 l/m 0,3 km/h (0 Bft) S-SW 202 5 min 15,8 C 28,8 C 0,0 km/h (0 Bft)
01.08.2021 16:00 20,7 C 19,1 C 20,1 C 28,9 C 28,9 C 8,2 C 74 % 80 % 1009,3 hPa 0,0 l/m 0,2 km/h (0 Bft) NO 45 5 min 15,9 C 28,9 C 0,0 km/h (0 Bft)
01.08.2021 16:05 20,9 C 19,2 C 19,9 C 28,7 C 28,7 C 7,8 C 73 % 79 % 1009,3 hPa 0,0 l/m 0,2 km/h (0 Bft) SO 135 5 min 15,9 C 28,7 C 0,0 km/h (0 Bft)
01.08.2021 16:10 20,8 C 19,2 C 19,9 C 27,1 C 27,1 C 6,3 C 71 % 79 % 1009,3 hPa 0,0 l/m 0,0 km/h (0 Bft) SO 135 5 min 15,3 C 27,1 C 0,0 km/h (0 Bft)
01.08.2021 16:15 20,9 C 19,2 C 19,9 C 27,3 C 27,3 C 6,4 C 71 % 77 % 1009,3 hPa 0,0 l/m 0,5 km/h (0 Bft) NW 315 5 min 15,4 C 27,3 C 2,4 km/h (1 Bft)
01.08.2021 16:20 20,8 C 19,2 C 19,7 C 27,0 C 27,0 C 6,2 C 70 % 76 % 1009,4 hPa 0,0 l/m 1,0 km/h (0 Bft) SW 225 5 min 15,1 C 27,0 C 0,0 km/h (0 Bft)
01.08.2021 16:25 20,8 C 19,2 C 19,6 C 26,0 C 26,0 C 5,2 C 70 % 77 % 1009,4 hPa 0,0 l/m 0,6 km/h (0 Bft) S 180 5 min 15,1 C 26,0 C 0,0 km/h (0 Bft)
01.08.2021 16:30 20,8 C 19,2 C 19,5 C 24,8 C 24,8 C 4,0 C 69 % 78 % 1009,4 hPa 0,0 l/m 0,0 km/h (0 Bft) S 180 5 min 14,9 C 24,8 C 0,0 km/h (0 Bft)
01.08.2021 16:35 20,8 C 19,2 C 19,4 C 24,2 C 24,2 C 3,4 C 69 % 76 % 1009,4 hPa 0,0 l/m 0,0 km/h (0 Bft) S-SW 202 5 min 14,9 C 24,2 C 0,0 km/h (0 Bft)
01.08.2021 16:40 20,9 C 19,2 C 19,4 C 23,8 C 23,8 C 2,9 C 69 % 77 % 1009,3 hPa 0,0 l/m 0,0 km/h (0 Bft) O-SO 112 0 min 15,0 C 23,8 C 0,0 km/h (0 Bft)
01.08.2021 16:45 20,9 C 19,2 C 19,5 C 23,6 C 23,6 C 2,7 C 69 % 77 % 1009,3 hPa 0,0 l/m 0,0 km/h (0 Bft) O-SO 112 0 min 15,0 C 23,6 C 0,0 km/h (0 Bft)
01.08.2021 16:50 21,0 C 19,2 C 19,4 C 22,9 C 22,9 C 1,9 C 70 % 78 % 1009,3 hPa 0,0 l/m 0,0 km/h (0 Bft) O-SO 112 0 min 15,3 C 22,9 C 0,0 km/h (0 Bft)
01.08.2021 16:55 21,0 C 19,2 C 19,3 C 22,6 C 22,6 C 1,6 C 68 % 78 % 1009,3 hPa 0,0 l/m 0,0 km/h (0 Bft) S-SW 202 0 min 14,9 C 22,6 C 0,0 km/h (0 Bft)
01.08.2021 17:00 20,8 C 19,2 C 19,2 C 22,1 C 22,1 C 1,3 C 67 % 78 % 1009,4 hPa 0,0 l/m 0,0 km/h (0 Bft) S-SW 202 0 min 14,4 C 22,1 C 0,0 km/h (0 Bft)
01.08.2021 17:05 20,8 C 19,2 C 19,1 C 21,8 C 21,8 C 1,0 C 67 % 77 % 1009,4 hPa 0,0 l/m 0,0 km/h (0 Bft) S-SW 202 0 min 14,4 C 21,8 C 0,0 km/h (0 Bft)
01.08.2021 17:10 20,7 C 19,2 C 18,9 C 21,1 C 21,1 C 0,4 C 67 % 78 % 1009,4 hPa 0,0 l/m 0,0 km/h (0 Bft) S-SW 202 0 min 14,3 C 21,1 C 0,0 km/h (0 Bft)
01.08.2021 17:15 20,5 C 19,2 C 18,8 C 20,8 C 20,8 C 0,3 C 68 % 78 % 1009,4 hPa 0,0 l/m 0,0 km/h (0 Bft) S-SW 202 0 min 14,4 C 20,8 C 0,0 km/h (0 Bft)
01.08.2021 17:20 20,0 C 19,3 C 18,5 C 19,9 C 19,7 C 0,0 C 69 % 78 % 1009,8 hPa 0,0 l/m 1,1 km/h (1 Bft) SW 225 0 min 14,1 C 19,7 C 5,5 km/h (1 Bft)
01.08.2021 17:25 19,7 C 19,5 C 18,0 C 19,2 C 18,3 C 0,0 C 71 % 79 % 1009,8 hPa 0,0 l/m 1,4 km/h (1 Bft) SW 225 0 min 14,3 C 18,3 C 0,0 km/h (0 Bft)
01.08.2021 17:30 18,9 C 19,7 C 17,5 C 18,2 C 16,9 C 0,0 C 74 % 82 % 1009,8 hPa 0,7 l/m 1,1 km/h (1 Bft) SW 225 0 min 14,2 C 16,9 C 8,2 km/h (2 Bft)
01.08.2021 17:35 18,7 C 19,8 C 17,0 C 18,0 C 16,6 C 0,0 C 75 % 84 % 1009,8 hPa 0,7 l/m 0,5 km/h (0 Bft) SW 225 0 min 14,2 C 16,6 C 0,0 km/h (0 Bft)
01.08.2021 17:40 18,2 C 19,8 C 16,7 C 17,7 C 16,6 C 0,0 C 77 % 86 % 1010,0 hPa 0,0 l/m 0,2 km/h (0 Bft) SO 135 0 min 14,1 C 16,6 C 0,0 km/h (0 Bft)
01.08.2021 17:45 18,0 C 19,8 C 16,5 C 17,6 C 16,7 C 0,0 C 78 % 87 % 1010,0 hPa 0,0 l/m 0,0 km/h (0 Bft) W-SW 247 0 min 14,1 C 16,7 C 0,0 km/h (0 Bft)
01.08.2021 17:50 17,9 C 19,8 C 16,7 C 17,7 C 17,2 C 0,0 C 80 % 89 % 1010,0 hPa 0,0 l/m 0,0 km/h (0 Bft) W-SW 247 0 min 14,4 C 17,2 C 0,0 km/h (0 Bft)
01.08.2021 17:55 18,0 C 19,8 C 16,9 C 17,9 C 17,7 C 0,0 C 81 % 89 % 1010,0 hPa 0,0 l/m 0,0 km/h (0 Bft) W-SW 247 0 min 14,7 C 17,7 C 0,0 km/h (0 Bft)
01.08.2021 18:00 18,0 C 19,8 C 16,7 C 18,0 C 18,0 C 0,0 C 82 % 89 % 1009,8 hPa 0,0 l/m 0,2 km/h (0 Bft) N-NW 337 0 min 14,9 C 18,0 C 0,0 km/h (0 Bft)
01.08.2021 18:05 18,1 C 19,8 C 16,7 C 18,0 C 17,8 C 0,0 C 82 % 89 % 1009,8 hPa 0,0 l/m 0,2 km/h (0 Bft) N-NW 337 0 min 15,0 C 17,8 C 0,0 km/h (0 Bft)
01.08.2021 18:10 18,1 C 19,8 C 16,8 C 18,1 C 18,0 C 0,0 C 83 % 90 % 1009,8 hPa 0,0 l/m 0,0 km/h (0 Bft) NW 315 0 min 15,2 C 18,0 C 0,0 km/h (0 Bft)
01.08.2021 18:15 18,1 C 19,8 C 16,8 C 18,1 C 18,0 C 0,0 C 83 % 90 % 1009,8 hPa 0,0 l/m 0,0 km/h (0 Bft) O-NO 67 0 min 15,2 C 18,0 C 0,0 km/h (0 Bft)
01.08.2021 18:20 18,0 C 19,8 C 16,8 C 18,1 C 18,1 C 0,1 C 83 % 90 % 1009,6 hPa 0,0 l/m 0,0 km/h (0 Bft) O-NO 67 0 min 15,1 C 18,1 C 0,0 km/h (0 Bft)
01.08.2021 18:25 18,0 C 19,8 C 16,9 C 18,4 C 18,4 C 0,4 C 83 % 90 % 1009,6 hPa 0,0 l/m 0,0 km/h (0 Bft) O-NO 67 0 min 15,1 C 18,4 C 0,0 km/h (0 Bft)
01.08.2021 18:30 18,1 C 19,8 C 16,9 C 19,0 C 19,0 C 0,9 C 84 % 90 % 1009,6 hPa 0,0 l/m 0,0 km/h (0 Bft) NW 315 0 min 15,4 C 19,0 C 0,0 km/h (0 Bft)
01.08.2021 18:35 18,2 C 19,8 C 17,0 C 19,2 C 19,2 C 1,0 C 84 % 90 % 1009,6 hPa 0,0 l/m 0,0 km/h (0 Bft) NW 315 0 min 15,4 C 19,2 C 0,0 km/h (0 Bft)
01.08.2021 18:40 18,2 C 19,8 C 17,0 C 19,4 C 19,4 C 1,2 C 84 % 90 % 1009,3 hPa 0,0 l/m 0,0 km/h (0 Bft) NW 315 0 min 15,4 C 19,4 C 0,0 km/h (0 Bft)
01.08.2021 18:45 18,4 C 19,8 C 16,9 C 19,4 C 19,4 C 1,0 C 84 % 90 % 1009,3 hPa 0,0 l/m 0,0 km/h (0 Bft) NW 315 0 min 15,6 C 19,4 C 0,0 km/h (0 Bft)
01.08.2021 18:50 18,5 C 19,8 C 17,0 C 19,5 C 19,5 C 1,0 C 84 % 91 % 1009,3 hPa 0,0 l/m 0,0 km/h (0 Bft) NW 315 0 min 15,7 C 19,5 C 0,0 km/h (0 Bft)
01.08.2021 18:55 18,5 C 19,8 C 17,1 C 19,5 C 19,5 C 1,0 C 84 % 91 % 1009,3 hPa 0,0 l/m 0,0 km/h (0 Bft) NW 315 0 min 15,7 C 19,5 C 0,0 km/h (0 Bft)
01.08.2021 19:00 18,7 C 19,8 C 17,1 C 19,6 C 19,6 C 0,9 C 84 % 91 % 1009,2 hPa 0,0 l/m 0,0 km/h (0 Bft) NW 315 0 min 15,9 C 19,6 C 0,0 km/h (0 Bft)
01.08.2021 19:05 18,7 C 19,8 C 17,1 C 19,6 C 19,6 C 0,9 C 83 % 91 % 1009,2 hPa 0,0 l/m 0,0 km/h (0 Bft) NW 315 0 min 15,8 C 19,6 C 0,0 km/h (0 Bft)
01.08.2021 19:10 18,6 C 19,8 C 17,3 C 19,7 C 19,7 C 1,1 C 83 % 91 % 1009,2 hPa 0,0 l/m 0,0 km/h (0 Bft) NW 315 0 min 15,7 C 19,7 C 0,0 km/h (0 Bft)
01.08.2021 19:15 18,7 C 19,8 C 17,3 C 19,6 C 19,6 C 0,9 C 84 % 91 % 1009,2 hPa 0,0 l/m 0,0 km/h (0 Bft) W-SW 247 0 min 15,9 C 19,6 C 0,0 km/h (0 Bft)
01.08.2021 19:20 18,8 C 19,8 C 17,3 C 19,5 C 19,5 C 0,7 C 83 % 91 % 1009,3 hPa 0,0 l/m 0,0 km/h (0 Bft) N-NO 22 0 min 15,8 C 19,5 C 0,0 km/h (0 Bft)
01.08.2021 19:25 18,8 C 19,8 C 17,2 C 19,2 C 19,2 C 0,4 C 83 % 92 % 1009,3 hPa 0,0 l/m 0,0 km/h (0 Bft) W-SW 247 0 min 15,8 C 19,2 C 0,0 km/h (0 Bft)
01.08.2021 19:30 18,7 C 19,8 C 17,1 C 18,7 C 18,7 C 0,0 C 83 % 92 % 1009,3 hPa 0,0 l/m 0,0 km/h (0 Bft) W-SW 247 0 min 15,8 C 18,7 C 0,0 km/h (0 Bft)
01.08.2021 19:35 18,7 C 19,8 C 17,1 C 18,6 C 18,4 C 0,0 C 83 % 92 % 1009,3 hPa 0,0 l/m 0,0 km/h (0 Bft) W-SW 247 0 min 15,8 C 18,4 C 0,0 km/h (0 Bft)
01.08.2021 19:40 18,7 C 19,8 C 17,2 C 18,7 C 18,7 C 0,0 C 83 % 92 % 1009,5 hPa 0,0 l/m 0,0 km/h (0 Bft) W-SW 247 0 min 15,8 C 18,7 C 0,0 km/h (0 Bft)
01.08.2021 19:45 18,7 C 19,8 C 17,3 C 19,6 C 19,6 C 0,9 C 84 % 92 % 1009,5 hPa 0,0 l/m 0,0 km/h (0 Bft) W-SW 247 0 min 15,9 C 19,6 C 0,0 km/h (0 Bft)
01.08.2021 19:50 18,7 C 19,8 C 17,5 C 20,5 C 20,5 C 1,8 C 84 % 92 % 1009,5 hPa 0,0 l/m 0,0 km/h (0 Bft) W-SW 247 5 min 15,9 C 20,5 C 0,0 km/h (0 Bft)
01.08.2021 19:55 18,7 C 19,8 C 17,6 C 21,2 C 21,2 C 2,5 C 84 % 92 % 1009,5 hPa 0,0 l/m 0,0 km/h (0 Bft) W-SW 247 5 min 15,9 C 21,2 C 0,0 km/h (0 Bft)
01.08.2021 20:00 18,8 C 19,8 C 17,8 C 22,1 C 22,1 C 3,3 C 84 % 92 % 1009,6 hPa 0,0 l/m 0,0 km/h (0 Bft) W-SW 247 5 min 16,0 C 22,1 C 0,0 km/h (0 Bft)
01.08.2021 20:05 18,8 C 19,8 C 17,7 C 22,4 C 22,4 C 3,6 C 84 % 92 % 1009,6 hPa 0,0 l/m 0,0 km/h (0 Bft) W-SW 247 5 min 16,0 C 22,4 C 0,0 km/h (0 Bft)
01.08.2021 20:10 18,9 C 19,9 C 17,6 C 21,5 C 21,5 C 2,6 C 84 % 92 % 1009,6 hPa 0,0 l/m 0,0 km/h (0 Bft) W-SW 247 5 min 16,1 C 21,5 C 0,0 km/h (0 Bft)
01.08.2021 20:15 18,8 C 19,9 C 17,5 C 20,6 C 20,6 C 1,8 C 84 % 92 % 1009,6 hPa 0,0 l/m 0,0 km/h (0 Bft) W-SW 247 5 min 16,0 C 20,6 C 0,0 km/h (0 Bft)
01.08.2021 20:20 18,7 C 19,9 C 17,4 C 19,5 C 19,5 C 0,8 C 84 % 92 % 1009,4 hPa 0,0 l/m 0,0 km/h (0 Bft) W-SW 247 5 min 15,9 C 19,5 C 0,0 km/h (0 Bft)
01.08.2021 20:25 18,6 C 19,8 C 17,2 C 18,9 C 18,9 C 0,3 C 84 % 92 % 1009,4 hPa 0,0 l/m 0,0 km/h (0 Bft) W-SW 247 0 min 15,8 C 18,9 C 0,0 km/h (0 Bft)
01.08.2021 20:30 18,4 C 19,8 C 16,9 C 18,3 C 18,1 C 0,0 C 84 % 92 % 1009,4 hPa 0,0 l/m 0,0 km/h (0 Bft) O-SO 112 0 min 15,6 C 18,1 C 0,0 km/h (0 Bft)
01.08.2021 20:35 18,2 C 19,8 C 16,7 C 18,0 C 17,7 C 0,0 C 83 % 92 % 1009,4 hPa 0,0 l/m 0,0 km/h (0 Bft) O-SO 112 0 min 15,3 C 17,7 C 0,0 km/h (0 Bft)
01.08.2021 20:40 17,9 C 19,8 C 16,5 C 17,7 C 17,2 C 0,0 C 83 % 92 % 1009,7 hPa 0,0 l/m 0,0 km/h (0 Bft) O-SO 112 0 min 15,0 C 17,2 C 0,0 km/h (0 Bft)
01.08.2021 20:45 17,9 C 19,8 C 16,3 C 17,6 C 16,9 C 0,0 C 83 % 92 % 1009,7 hPa 0,0 l/m 0,0 km/h (0 Bft) O-SO 112 0 min 15,0 C 16,9 C 0,0 km/h (0 Bft)
01.08.2021 20:50 17,4 C 19,8 C 16,1 C 17,0 C 16,3 C 0,0 C 83 % 92 % 1009,7 hPa 0,0 l/m 0,0 km/h (0 Bft) O-SO 112 0 min 14,5 C 16,3 C 0,0 km/h (0 Bft)
01.08.2021 20:55 17,3 C 19,8 C 15,9 C 16,9 C 16,0 C 0,0 C 83 % 92 % 1009,7 hPa 0,0 l/m 0,0 km/h (0 Bft) O-SO 112 0 min 14,4 C 16,0 C 0,0 km/h (0 Bft)
01.08.2021 21:00 17,0 C 19,8 C 15,8 C 16,5 C 15,6 C 0,0 C 83 % 92 % 1009,6 hPa 0,0 l/m 0,0 km/h (0 Bft) O-SO 112 0 min 14,1 C 15,6 C 0,0 km/h (0 Bft)
01.08.2021 21:05 16,9 C 19,8 C 15,6 C 16,3 C 15,2 C 0,0 C 83 % 92 % 1009,6 hPa 0,0 l/m 0,0 km/h (0 Bft) O 90 0 min 14,0 C 15,2 C 0,0 km/h (0 Bft)
01.08.2021 21:10 16,7 C 19,8 C 15,5 C 16,1 C 15,0 C 0,0 C 83 % 92 % 1009,6 hPa 0,0 l/m 0,0 km/h (0 Bft) O 90 0 min 13,8 C 15,0 C 0,0 km/h (0 Bft)
01.08.2021 21:15 16,6 C 19,8 C 15,4 C 16,0 C 14,8 C 0,0 C 83 % 93 % 1009,6 hPa 0,0 l/m 0,0 km/h (0 Bft) O-NO 67 0 min 13,7 C 14,8 C 0,0 km/h (0 Bft)
01.08.2021 21:20 16,5 C 19,8 C 15,4 C 15,9 C 14,8 C 0,0 C 83 % 93 % 1009,9 hPa 0,0 l/m 0,0 km/h (0 Bft) SO 135 0 min 13,6 C 14,8 C 0,0 km/h (0 Bft)
01.08.2021 21:25 16,3 C 19,8 C 15,3 C 15,8 C 14,8 C 0,0 C 83 % 93 % 1009,9 hPa 0,0 l/m 0,0 km/h (0 Bft) SO 135 0 min 13,4 C 14,8 C 0,0 km/h (0 Bft)
01.08.2021 21:30 16,3 C 19,7 C 15,3 C 15,8 C 14,9 C 0,0 C 84 % 93 % 1009,9 hPa 0,0 l/m 0,0 km/h (0 Bft) S-SW 202 0 min 13,6 C 14,9 C 0,0 km/h (0 Bft)
01.08.2021 21:35 16,1 C 19,7 C 15,2 C 15,7 C 14,9 C 0,0 C 84 % 93 % 1009,9 hPa 0,0 l/m 0,0 km/h (0 Bft) SO 135 0 min 13,4 C 14,9 C 0,0 km/h (0 Bft)
01.08.2021 21:40 16,0 C 19,7 C 15,2 C 15,6 C 14,9 C 0,0 C 84 % 93 % 1010,2 hPa 0,0 l/m 0,0 km/h (0 Bft) O-SO 112 0 min 13,3 C 14,9 C 0,0 km/h (0 Bft)
01.08.2021 21:45 16,0 C 19,7 C 15,1 C 15,6 C 14,8 C 0,0 C 84 % 93 % 1010,2 hPa 0,0 l/m 0,0 km/h (0 Bft) S-SO 157 0 min 13,3 C 14,8 C 0,0 km/h (0 Bft)
01.08.2021 21:50 15,8 C 19,7 C 15,0 C 15,4 C 14,6 C 0,0 C 84 % 93 % 1010,2 hPa 0,0 l/m 0,0 km/h (0 Bft) SO 135 0 min 13,1 C 14,6 C 0,0 km/h (0 Bft)
01.08.2021 21:55 15,8 C 19,7 C 14,9 C 15,4 C 14,6 C 0,0 C 85 % 92 % 1010,2 hPa 0,0 l/m 0,0 km/h (0 Bft) O-SO 112 0 min 13,3 C 14,6 C 0,0 km/h (0 Bft)
01.08.2021 22:00 15,6 C 19,7 C 14,9 C 15,2 C 14,5 C 0,0 C 84 % 92 % 1010,0 hPa 0,0 l/m 0,0 km/h (0 Bft) S-SO 157 0 min 12,9 C 14,5 C 0,0 km/h (0 Bft)
01.08.2021 22:05 15,6 C 19,7 C 14,8 C 15,2 C 14,4 C 0,0 C 84 % 92 % 1010,0 hPa 0,0 l/m 0,0 km/h (0 Bft) O-NO 67 0 min 12,9 C 14,4 C 0,0 km/h (0 Bft)
01.08.2021 22:10 15,4 C 19,8 C 14,7 C 15,1 C 14,4 C 0,0 C 85 % 92 % 1010,0 hPa 0,0 l/m 0,0 km/h (0 Bft) O-NO 67 0 min 12,9 C 14,4 C 0,0 km/h (0 Bft)
01.08.2021 22:15 15,4 C 19,8 C 14,7 C 15,0 C 14,3 C 0,0 C 85 % 92 % 1010,0 hPa 0,0 l/m 0,0 km/h (0 Bft) O-NO 67 0 min 12,9 C 14,3 C 0,0 km/h (0 Bft)
01.08.2021 22:20 15,3 C 19,8 C 14,5 C 14,9 C 14,2 C 0,0 C 85 % 92 % 1010,4 hPa 0,0 l/m 0,0 km/h (0 Bft) O-NO 67 0 min 12,8 C 14,2 C 0,0 km/h (0 Bft)
01.08.2021 22:25 15,2 C 19,7 C 14,5 C 14,9 C 14,2 C 0,0 C 85 % 93 % 1010,4 hPa 0,0 l/m 0,0 km/h (0 Bft) O-NO 67 0 min 12,7 C 14,2 C 0,0 km/h (0 Bft)
01.08.2021 22:30 15,2 C 19,7 C 14,4 C 14,8 C 14,1 C 0,0 C 86 % 93 % 1010,4 hPa 0,0 l/m 0,0 km/h (0 Bft) O-NO 67 0 min 12,9 C 14,1 C 0,0 km/h (0 Bft)
01.08.2021 22:35 15,1 C 19,7 C 14,5 C 14,8 C 14,1 C 0,0 C 86 % 93 % 1010,4 hPa 0,0 l/m 0,0 km/h (0 Bft) O-NO 67 0 min 12,8 C 14,1 C 0,0 km/h (0 Bft)
01.08.2021 22:40 15,1 C 19,7 C 14,4 C 14,7 C 14,0 C 0,0 C 86 % 93 % 1010,2 hPa 0,0 l/m 0,0 km/h (0 Bft) O-NO 67 0 min 12,8 C 14,0 C 0,0 km/h (0 Bft)
01.08.2021 22:45 14,9 C 19,7 C 14,4 C 14,6 C 14,0 C 0,0 C 86 % 93 % 1010,2 hPa 0,0 l/m 0,0 km/h (0 Bft) O-NO 67 0 min 12,6 C 14,0 C 0,0 km/h (0 Bft)
01.08.2021 22:50 14,9 C 19,7 C 14,4 C 14,6 C 14,0 C 0,0 C 86 % 93 % 1010,2 hPa 0,0 l/m 0,0 km/h (0 Bft) O-NO 67 0 min 12,6 C 14,0 C 0,0 km/h (0 Bft)
01.08.2021 22:55 14,8 C 19,7 C 14,3 C 14,5 C 13,9 C 0,0 C 86 % 93 % 1010,2 hPa 0,0 l/m 0,0 km/h (0 Bft) O-NO 67 0 min 12,5 C 13,9 C 0,0 km/h (0 Bft)
01.08.2021 23:00 14,8 C 19,7 C 14,2 C 14,5 C 13,8 C 0,0 C 86 % 93 % 1010,1 hPa 0,0 l/m 0,0 km/h (0 Bft) O-NO 67 0 min 12,5 C 13,8 C 0,0 km/h (0 Bft)
01.08.2021 23:05 14,7 C 19,6 C 14,1 C 14,3 C 13,6 C 0,0 C 86 % 93 % 1010,1 hPa 0,0 l/m 0,0 km/h (0 Bft) O-NO 67 0 min 12,4 C 13,6 C 0,0 km/h (0 Bft)
01.08.2021 23:10 14,7 C 19,6 C 14,0 C 14,3 C 13,4 C 0,0 C 87 % 93 % 1010,1 hPa 0,0 l/m 0,0 km/h (0 Bft) O-NO 67 0 min 12,6 C 13,4 C 0,0 km/h (0 Bft)
01.08.2021 23:15 14,6 C 19,6 C 14,0 C 14,2 C 13,3 C 0,0 C 87 % 93 % 1010,1 hPa 0,0 l/m 0,0 km/h (0 Bft) O-NO 67 0 min 12,5 C 13,3 C 0,0 km/h (0 Bft)
01.08.2021 23:20 14,5 C 19,6 C 14,0 C 14,1 C 13,2 C 0,0 C 87 % 93 % 1010,5 hPa 0,0 l/m 0,0 km/h (0 Bft) W 270 0 min 12,4 C 13,2 C 0,0 km/h (0 Bft)
01.08.2021 23:25 14,5 C 19,6 C 13,9 C 14,0 C 13,1 C 0,0 C 87 % 93 % 1010,5 hPa 0,0 l/m 0,0 km/h (0 Bft) S-SW 202 0 min 12,4 C 13,1 C 0,0 km/h (0 Bft)
01.08.2021 23:30 14,3 C 19,6 C 13,8 C 13,9 C 13,0 C 0,0 C 86 % 93 % 1010,5 hPa 0,0 l/m 0,0 km/h (0 Bft) NW 315 0 min 12,0 C 13,0 C 0,0 km/h (0 Bft)
01.08.2021 23:35 14,3 C 19,6 C 13,6 C 13,9 C 13,0 C 0,0 C 86 % 93 % 1010,5 hPa 0,0 l/m 0,0 km/h (0 Bft) SO 135 0 min 12,0 C 13,0 C 0,0 km/h (0 Bft)
01.08.2021 23:40 14,1 C 19,6 C 13,6 C 13,7 C 12,9 C 0,0 C 86 % 93 % 1010,3 hPa 0,0 l/m 0,0 km/h (0 Bft) W-SW 247 0 min 11,8 C 12,9 C 0,0 km/h (0 Bft)
01.08.2021 23:45 14,0 C 19,5 C 13,5 C 13,6 C 12,8 C 0,0 C 86 % 93 % 1010,3 hPa 0,0 l/m 0,0 km/h (0 Bft) W-SW 247 0 min 11,7 C 12,8 C 0,0 km/h (0 Bft)
01.08.2021 23:50 13,9 C 19,5 C 13,4 C 13,5 C 12,6 C 0,0 C 86 % 93 % 1010,3 hPa 0,0 l/m 0,0 km/h (0 Bft) SO 135 0 min 11,6 C 12,6 C 0,0 km/h (0 Bft)
01.08.2021 23:55 13,9 C 19,5 C 13,4 C 13,5 C 12,6 C 0,0 C 86 % 93 % 1010,3 hPa 0,0 l/m 0,0 km/h (0 Bft) W 270 0 min 11,6 C 12,6 C 0,0 km/h (0 Bft)
_ Min-Zeit 03:55 09:20 03:50 03:45 03:45 00:00 17:00 16:20 19:00 - 00:00 - - - 03:55 03:45 00:00
Minimum _ 12,4 C 19,1 C 12,3 C 12,0 C 11,1 C 0,0 C 67 % 76 % 1009,2 hPa - 0,0 km/h (0 Bft) - - - 9,8 C 11,1 C 0,0 km/h (0 Bft)
_ Max-Zeit 16:50 00:00 16:00 16:00 16:00 15:55 07:00 21:15 01:40 11:50 15:40 - - 14:25 20:10 16:00 17:30
Maximum _ 21,0 C 20,4 C 20,1 C 28,9 C 28,9 C 8,4 C 87 % 93 % 1011,9 hPa 0,7 l/m 1,6 km/h
NO (1 Bft)
- - 5 min 16,1 C 28,9 C 8,2 km/h
SW (2 Bft)
Durchschnitt _ 16,1 C 19,7 C 15,4 C 16,7 C 16,3 C 0,9 C 82 % 87 % 1010,4 hPa #2,7 l/m 0,1 km/h (0 Bft) SW - #2:50 h 13,0 C 16,3 C 0,1 km/h (0 Bft)
2021 www.wetterstation-wechselburg.de